sat.trackr.live / text

‹ back to catalog

EXPRESS-AT1

NORAD 39612 · 2014-010A

PAYLOAD ACTIVE UNKNOWN

§ Identity

Operator
Country
CIS
Launch date
2014-03-15
Launch site
TYMSC
Launch vehicle
Mass (kg)
RCS (m²)
3.62

Purposes: comms

External: N2YO · Heavens-Above · Gunter

§ Orbital elements

Epoch: 2026-09-13T02:14:04.126848Z

Period
1,435.48 min
Inclination
0.4787°
Eccentricity
0.0004834
Mean motion
1.00314992 rev/d
Perigee alt
35,754.1 km
Apogee alt
35,794.9 km
Semi-major
42,152.6 km
B*
0.0000e+0
RAAN
84.5971°
Arg perigee
81.1013°
Mean anomaly
294.7749°
Rev number
4,570

§ Raw data

EXPRESS-AT11 39612U 14010A   26256.09310332 -.00000107  00000+0  00000+0 0  99962 39612   0.4787  84.5971 0004834  81.1013 294.7749  1.00314992 45703

JSON: /api/v1/satellites/39612 · /tle

For live sub-satellite position, see the globe view (requires WebGL).

§ Visibility from observer

Set your observer location to see the next 7 days of passes ≥ 10°. The values pass through the URL so the page stays shareable.

No JS? Fill the form by hand. The geolocation button needs JavaScript.